Weather History for Meridian NAS, MS

Change the Weather History Date:

Friday, April 18, 2014

  Actual Average Record
Temperature  
Mean Temperature 58 °F -  
Max Temperature 62 °F 73 °F 91 °F (2006)
Min Temperature 55 °F 51 °F 33 °F (1997)
Degree Days  
Heating Degree Days 7    
Growing Degree Days 8 (Base 50)    
Moisture  
Dew Point 53 °F    
Average Humidity 83    
Maximum Humidity 90    
Minimum Humidity 75    
Precipitation  
Precipitation 0.00 in - - ()
Sea Level Pressure  
Sea Level Pressure 30.19 in    
Wind  
Wind Speed 7 mph (NE)    
Max Wind Speed 16 mph    
Max Gust Speed 20 mph    
Visibility 10 miles    
Events Rain    
Averages and records for this station are not official NWS values.
T = Trace of Precipitation, MM = Missing Value Source: NWS Daily Summary

Daily Weather History Graph

Daily Weather History Graph

Search for Another Location

Airport:

Trip Planner

Search our weather history database for the weather conditions in past years. The results will help you decide how hot, cold, wet, or windy it might be!

Date:

Astronomy

Apr. 18, 2014 Rise Set
Actual Time 6:21 AM CDT 7:26 PM CDT
Civil Twilight 5:55 AM CDT 7:51 PM CDT
Nautical Twilight 5:25 AM CDT 8:21 PM CDT
Astronomical Twilight 4:54 AM CDT 8:53 PM CDT
Moon 11:03 PM CDT 8:50 AM CDT
Length of Visible Light 13h 55m
Length of Day
13h 04m
Waning Gibbous, 87% of the Moon is Illuminated
Apr 18
Waning Gibbous
Apr 22
Last Quarter
Apr 29
New
May 6
First Quarter
May 14
Full

Hourly Weather History & Observations

Time (CDT) Temp. Dew Point Humidity Pressure Visibility Wind Dir Wind Speed Gust Speed Precip Events Conditions
12:56 AM 57.9 °F 52.0 °F 81% 30.24 in 10.0 mi East 5.8 mph - N/A   Clear
1:56 AM 57.9 °F 52.0 °F 81% 30.22 in 10.0 mi ENE 3.5 mph - N/A   Clear
2:56 AM 57.9 °F 52.0 °F 81% 30.20 in 10.0 mi NE 3.5 mph - N/A   Mostly Cloudy
3:42 AM 57.9 °F 52.0 °F 81% 30.17 in 10.0 mi NNW 5.8 mph - 0.00 in Rain Light Rain
3:56 AM 57.9 °F 53.1 °F 84% 30.20 in 10.0 mi North 4.6 mph - 0.00 in Rain Light Rain
4:14 AM 57.9 °F 53.1 °F 84% 30.17 in 10.0 mi ENE 4.6 mph - 0.00 in Rain Light Rain
4:53 AM 57.2 °F 53.6 °F 88% 30.16 in 10.0 mi East 8.1 mph - 0.00 in Rain Light Rain
4:56 AM 57.0 °F 53.1 °F 87% 30.19 in 10.0 mi East 8.1 mph - 0.00 in   Overcast
5:12 AM 57.0 °F 53.1 °F 87% 30.16 in 10.0 mi ENE 5.8 mph - 0.00 in   Overcast
5:56 AM 55.9 °F 53.1 °F 90% 30.20 in 10.0 mi East 10.4 mph - 0.00 in Rain Light Rain
6:02 AM 55.9 °F 53.1 °F 90% 30.17 in 10.0 mi East 8.1 mph - 0.00 in   Overcast
6:23 AM 55.9 °F 53.1 °F 90% 30.18 in 10.0 mi Variable 3.5 mph - 0.00 in   Overcast
6:56 AM 57.0 °F 52.0 °F 83% 30.22 in 10.0 mi ENE 6.9 mph - 0.00 in   Overcast
7:56 AM 57.0 °F 52.0 °F 83% 30.23 in 10.0 mi East 9.2 mph - N/A   Overcast
8:09 AM 57.0 °F 52.0 °F 83% 30.20 in 10.0 mi ENE 8.1 mph - N/A   Overcast
8:56 AM 57.0 °F 52.0 °F 83% 30.23 in 10.0 mi ENE 9.2 mph - N/A   Overcast
8:58 AM 57.0 °F 52.0 °F 83% 30.20 in 10.0 mi ENE 9.2 mph - N/A   Overcast
9:51 AM 57.2 °F 51.8 °F 82% 30.22 in 10.0 mi ENE 9.2 mph - N/A   Overcast
9:56 AM 57.0 °F 53.1 °F 87% 30.25 in 10.0 mi ENE 11.5 mph - N/A   Overcast
10:56 AM 57.9 °F 53.1 °F 84% 30.25 in 10.0 mi ENE 9.2 mph - N/A   Overcast
11:54 AM 60.8 °F 53.6 °F 77% 30.20 in 10.0 mi ENE 12.7 mph 19.6 mph N/A   Overcast
11:56 AM 59.0 °F 53.1 °F 81% 30.23 in 10.0 mi ENE 16.1 mph 19.6 mph N/A   Overcast
12:56 PM 60.1 °F 52.0 °F 75% 30.22 in 10.0 mi ENE 10.4 mph - N/A   Overcast
1:56 PM 61.0 °F 53.1 °F 75% 30.20 in 10.0 mi NE 10.4 mph - N/A   Overcast
2:56 PM 61.0 °F 53.1 °F 75% 30.18 in 10.0 mi NNE 9.2 mph - N/A   Overcast
3:33 PM 61.0 °F 53.1 °F 75% 30.14 in 10.0 mi Variable 6.9 mph - N/A   Overcast
3:56 PM 61.0 °F 54.0 °F 78% 30.17 in 10.0 mi North 5.8 mph - N/A   Overcast
4:30 PM 61.0 °F 54.0 °F 78% 30.14 in 10.0 mi North 6.9 mph - N/A   Overcast
4:37 PM 61.0 °F 54.0 °F 78% 30.14 in 10.0 mi NNE 9.2 mph - N/A   Overcast
4:56 PM 61.0 °F 54.0 °F 78% 30.17 in 10.0 mi NNE 5.8 mph - N/A   Overcast
5:56 PM 57.9 °F 55.0 °F 90% 30.19 in 10.0 mi NE 5.8 mph - N/A   Overcast
6:09 PM 57.9 °F 54.0 °F 87% 30.16 in 9.0 mi NNE 5.8 mph - N/A   Overcast
6:20 PM 57.9 °F 54.0 °F 87% 30.16 in 10.0 mi NNE 4.6 mph - N/A   Overcast
6:56 PM 57.9 °F 54.0 °F 87% 30.19 in 10.0 mi NNE 5.8 mph - N/A   Overcast
7:56 PM 57.0 °F 54.0 °F 89% 30.18 in 10.0 mi NE 4.6 mph - 0.00 in   Mostly Cloudy
8:56 PM 57.0 °F 53.1 °F 87% 30.18 in 10.0 mi NNW 3.5 mph - N/A   Partly Cloudy
9:56 PM 55.9 °F 53.1 °F 90% 30.19 in 10.0 mi North 3.5 mph - N/A   Clear
10:56 PM 55.9 °F 52.0 °F 87% 30.19 in 10.0 mi North 6.9 mph - N/A   Clear
11:56 PM 55.9 °F 51.1 °F 84% 30.20 in 10.0 mi NNE 4.6 mph - N/A   Clear